Location: Prague
(50.0830°N, 14.4670°E)
Time: 12:39:08
(UTC+01:00)

Oscar 11 - Pass Details

Date: 01 December 2021
Orbit: 611 x 625 km, 97.6° (Epoch: 23 January)

Event Time Altitude Azimuth Distance (km) Brightness Sun altitude
Rises 06:40:11 0° 4° (N) 2,923 10.3 -9.1°
Reaches altitude 10° 06:42:40 10° 351° (N) 2,009 9.4 -8.8°
Maximum altitude 06:46:14 25° 296° (WNW) 1,258 8.1 -8.3°
Drops below altitude 10° 06:49:48 10° 241° (WSW) 1,991 9.3 -7.7°
Sets 06:52:15 0° 228° (SW) 2,891 10.3 -7.4°
